GW4194 Weather Reports


Display with metric or nautical units.
time (UTC)temp
F
wind
direction
speed
MPH
gust
MPH
rain 1hr
in
rain 24hr
in
rain mn
in
humidity
%
barometer
mb
20260504184555 67 159 4.0 11.0 0.01 0.01 0.01 66 1012.6
20260504183100 65 166 1.0 10.0 0.01 0.01 0.01 68 1013.1
20260504181558 67 255 3.0 13.0 0.00 0.00 0.00 58 1013.3
20260504180057 69 217 6.0 14.0 0.00 0.00 0.00 52 1012.8
20260504174600 69 190 11.0 23.0 0.00 0.00 0.00 51 1012.5
20260504173059 69 205 8.0 19.0 0.00 0.00 0.00 53 1012.6
20260504171557 69 180 7.0 18.0 0.00 0.00 0.00 54 1012.3
20260504081604 46 185 1.0 3.0 0.00 0.00 0.00 82 1015.0
20260504060126 48 166 0.0 4.0 0.00 0.00 0.00 79 1016.1
20260504050115 49 0 1.0 4.0 0.00 0.00 0.00 79 1016.8
20260504044559 49 219 1.0 3.0 0.00 0.00 0.00 79 1016.9
20260504043108 49 227 1.0 3.0 0.00 0.00 0.00 78 1016.9
20260504041557 49 173 1.0 3.0 0.00 0.00 0.00 77 1017.0
20260504040100 50 251 0.0 3.0 0.00 0.00 0.00 78 1016.9
20260504034601 50 232 1.0 3.0 0.00 0.00 0.00 75 1016.9
20260504033100 50 0 0.0 3.0 0.00 0.00 0.00 75 1016.6
20260504031604 51 212 1.0 4.0 0.00 0.00 0.00 72 1016.5
20260504030059 52 0 0.0 0.0 0.00 0.00 0.00 64 1016.9
20260504024557 52 0 0.0 1.0 0.00 0.00 0.00 61 1016.5
20260504023058 52 238 1.0 2.0 0.00 0.00 0.00 60 1016.5
20260504021558 53 238 1.0 3.0 0.00 0.00 0.00 57 1016.4
20260504020057 53 173 1.0 3.0 0.00 0.00 0.00 57 1016.1
20260504014602 53 0 0.0 3.0 0.00 0.00 0.00 56 1016.0
20260504013111 54 214 1.0 2.0 0.00 0.00 0.00 54 1015.7
20260504011556 54 0 0.0 0.0 0.00 0.00 0.00 54 1015.7
20260504010115 54 0 0.0 0.0 0.00 0.00 0.00 48 1015.9
20260504004557 56 0 0.0 0.0 0.00 0.00 0.00 48 1015.9
20260504003059 57 0 0.0 0.0 0.00 0.00 0.00 46 1016.1
20260504001603 57 0 0.0 2.0 0.00 0.00 0.00 41 1015.9
20260504000058 59 0 0.0 1.0 0.00 0.00 0.00 40 1016.0
20260503234557 60 0 0.0 4.0 0.00 0.00 0.00 34 1015.9
20260503233102 62 267 1.0 12.0 0.00 0.00 0.00 31 1016.0
20260503231557 62 126 7.0 11.0 0.00 0.00 0.00 30 1016.2
20260503230056 62 133 4.0 12.0 0.00 0.00 0.00 30 1016.1
20260503224557 63 266 2.0 5.0 0.00 0.00 0.00 31 1016.2
20260503223056 63 163 3.0 9.0 0.00 0.00 0.00 30 1016.6
20260503221600 63 221 3.0 11.0 0.00 0.00 0.00 30 1016.6
20260503220104 63 128 4.0 11.0 0.00 0.00 0.00 29 1016.6
20260503214558 63 206 6.0 12.0 0.00 0.00 0.00 30 1016.7
20260503213057 63 166 4.0 12.0 0.00 0.00 0.00 31 1016.8
20260503211559 63 193 3.0 10.0 0.00 0.00 0.00 31 1016.8
20260503210101 63 194 6.0 13.0 0.00 0.00 0.00 29 1017.0
20260503204609 63 237 3.0 10.0 0.00 0.00 0.00 30 1017.1
20260503203106 63 214 5.0 12.0 0.00 0.00 0.00 31 1017.2
20260503201556 63 130 6.0 14.0 0.00 0.00 0.00 27 1017.9
20260503200056 63 253 6.0 15.0 0.00 0.00 0.00 29 1017.9
20260503194618 62 246 3.0 12.0 0.00 0.00 0.00 33 1018.2
20260503193058 61 174 4.0 10.0 0.00 0.00 0.00 30 1018.3
20260503191602 61 223 6.0 11.0 0.00 0.00 0.00 30 1018.6